Regional Weather Roundup
Issued by NWS

Home | Current Version | Previous Version | Text Only | Print | Product List | Glossary Off
Versions: 1 2 3 4 5 6 7 8 9 10 11 12 13 14 15 16 17 18 19 20 21 22 23 24 25 26 27 28 29 30 31 32 33 34 35 36 37 38 39 40 41 42 43 44 45 46 47 48 49 50

000
ASUS43 KBIS 221910
RWRND

NORTH DAKOTA REGIONAL WEATHER ROUNDUP
NATIONAL WEATHER SERVICE BISMARCK ND
200 PM CDT FRI AUG 22 2014

NOTE: "FAIR" INDICATES FEW OR NO CLOUDS BELOW 12,000 FEET WITH NO
SIGNIFICANT WEATHER AND/OR OBSTRUCTIONS TO VISIBILITY.


NDZ001>003-009>011-017-222000-
NORTHWEST NORTH DAKOTA

CITY           SKY/WX    TMP DP  RH WIND       PRES   REMARKS
WILLISTON      CLOUDY    68  53  58 NE10      30.11R
MINOT          CLOUDY    63  60  90 N9        30.09S FOG
MINOT AFB      CLOUDY    66  61  85 NE12      30.09S
$$

NDZ018>021-031>035-040>046-222000-
SOUTHWEST NORTH DAKOTA

CITY           SKY/WX    TMP DP  RH WIND       PRES   REMARKS
BISMARCK       CLOUDY    73  65  75 N8        30.04F
DICKINSON      CLOUDY    65  61  87 NE13      30.06F
GARRISON         N/A     64  62  93 NE7       30.08R
HETTINGER ARPT CLOUDY    69  59  70 CALM      30.08F
$$

NDZ004>008-012>016-024-026-027-054-222000-
NORTHEAST NORTH DAKOTA

CITY           SKY/WX    TMP DP  RH WIND       PRES   REMARKS
GRAND FORKS    CLOUDY    69  64  84 NW15      30.01F
GRND FRKS AFB  CLOUDY    68  68  99 N13       30.03S
DEVILS LAKE    CLOUDY    66  57  72 NE12      30.06R
$$

NDZ022-023-025-028>030-036>039-047>053-222000-
SOUTHEAST NORTH DAKOTA

CITY           SKY/WX    TMP DP  RH WIND       PRES   REMARKS
FARGO          CLOUDY    72  67  84 N9        30.00S
JAMESTOWN      PTSUNNY   75  65  70 VRB5      30.04S
$$




USA.gov is the U.S. government's official web portal to all federal, state and local government web resources and services.